Tracking 19431 objects as of 18-Dec-2018
HD Live streaming from Space Station
objects crossing your sky now

IRIDIUM 148

Track IRIDIUM 148 now!
10-day predictions
IRIDIUM 148 is classified as:


NORAD ID: 43255
Int'l Code: 2018-030I
Perigee: 783.0 km
Apogee: 786.6 km
Inclination: 86.4 °
Period: 100.4 minutes
Semi major axis: 7155 km
RCS: Unknown
Launch date: March 30, 2018
Source: United States (US)
Launch site: AIR FORCE WESTERN TEST RANGE (AFWTR)
aabbcc
Your satellite tracking list
Your tracking list is empty




NASA's NSSDC Master Catalog

Two Line Element Set (TLE):
1 43255U 18030G   18352.56466575  .00000080  00000-0  21458-4 0  9996
2 43255  86.3959 354.4931 0002455  93.5471 266.6006 14.34219503 37799
Source of the keplerian elements: AFSPC